Regional Weather Roundup
Issued by NWS

Home | Current Version | Previous Version | Graphics & Text | Print | Product List | Glossary On
Versions: 1 2 3 4 5 6 7 8 9 10 11 12 13 14 15 16 17 18 19 20 21 22 23 24 25 26 27 28 29 30 31 32 33 34 35 36 37 38 39 40 41 42 43 44 45 46 47 48 49 50
000
ASUS45 KABQ 290310
RWRNM
WEATHER ROUNDUP FOR NEW MEXICO
NATIONAL WEATHER SERVICE ALBUQUERQUE NM
900 PM MDT THU AUG 28 2014

NOTE: "FAIR" MEANS FEW OR NO CLOUDS BELOW 12,000 FEET AGL WITH NO
       SIGNIFICANT WEATHER OR OBSTRUCTIONS TO VISION.

      THIS PRODUCT IS RELEASED AS TWO VERSIONS.  ONE VERSION NEAR
      THE TOP OF THE HOUR CONTAINING PRELIMINARY DATA FROM ALBUQUERQUE
      AND OTHER STATIONS.  A FINAL VERSION WITH ADDITIONAL DATA IS
      ISSUED ABOUT 10 MINUTES AFTER THE HOUR.

NMZ501-503-504-510>518-290400-
NORTHWEST PLATEAU/NORTHCENTRAL MOUNTAINS

CITY           SKY/WX    TMP DP  RH WIND       PRES   REMARKS
FARMINGTON     CLEAR     71  42  35 NW9       30.15R
LOS ALAMOS     MOCLDY    65  40  40 CALM      30.25R
SANTA FE       CLEAR     66  42  41 N3        30.18R
ANGEL FIRE     FAIR      48  40  74 CALM      30.35R

$$
NMZ402-403-502-505>509-290400-
WESTCENTRAL MOUNTAINS/SOUTHWEST MOUNTAINS

CITY           SKY/WX    TMP DP  RH WIND       PRES   REMARKS
GALLUP         CLEAR     68  37  32 E7        30.24R
SILVER CITY    CLEAR     75  41  29 NW10      30.13R

$$
NMZ407-409-411-412-290400-
SOUTHERN DESERTS

CITY           SKY/WX    TMP DP  RH WIND       PRES   REMARKS
LORDSBURG      FAIR      79  43  27 W8        30.04R
DEMING         CLEAR     81  43  26 SW9       30.02R
LAS CRUCES     CLEAR     76  44  31 CALM      30.04R
HOLLOMAN AFB   CLEAR     78  46  31 NE6       30.00R
ALAMOGORDO     CLEAR     77  43  29 N9        30.03R
T OR C         CLEAR     79  51  37 CALM      30.06R

$$
NMZ519>523-290400-
CENTRAL VALLEYS/CENTRAL HIGHLANDS

CITY           SKY/WX    TMP DP  RH WIND       PRES   REMARKS
ALBUQUERQUE    CLEAR     76  40  27 NW8       30.13R
DOUBLE EAGLE   CLEAR     68  43  40 W8        30.16R
MORIARTY ARPT  FAIR      62  46  56 CALM      30.19R
CLINES CORNERS CLEAR     64  39  39 NW9       30.23R
BELEN          FAIR      72  39  30 N10       30.11R
SOCORRO        FAIR      73  54  50 CALM      30.09R

$$
NMZ524>526-539-540-290400-
SOUTHCENTRAL MOUNTAINS

CITY           SKY/WX    TMP DP  RH WIND       PRES   REMARKS
RUIDOSO        CLEAR     64  41  42 W9        30.25R

$$
NMZ527>531-290400-
NORTHEAST HIGHLANDS/NORTHEAST PLAINS

CITY           SKY/WX    TMP DP  RH WIND       PRES   REMARKS
LAS VEGAS      PTCLDY    60  40  47 N8        30.22R
RATON          CLOUDY    62  44  51 N12       30.20R
CLAYTON        CLEAR     65  50  58 NW14      30.10R

$$
NMZ532>537-290400-
EASTCENTRAL PLAINS

CITY           SKY/WX    TMP DP  RH WIND       PRES   REMARKS
TUCUMCARI      MOCLDY    77  44  30 E13       30.01R
CANNON AFB     CLEAR     78  44  30 NW8       30.00R
CLOVIS AIRPORT   N/A     73  43  33 W7        30.02R

$$
NMZ028-029-538-290400-
SOUTHEAST PLAINS

CITY           SKY/WX    TMP DP  RH WIND       PRES   REMARKS
ROSWELL        PTCLDY    81  44  27 NW6       29.97R
CARLSBAD       CLEAR     85  44  23 W7        29.92R
HOBBS          PTCLDY    82  50  32 NW5       29.97R


$$



USA.gov is the U.S. government's official web portal to all federal, state and local government web resources and services.